Location: Newark
(40.9908°N, 0.0353°W)
Time: 03:44:23
(UTC+00:00)

ISS - Pass Details

Date: 28 October 2019
Orbit: 412 x 421 km, 51.6° (Epoch: 14 November)

Event Time Altitude Azimuth Distance (km) Brightness Sun altitude
Exits shadow 04:43:39 75° 340° (NNW) 440 -3.8 -19.8°
Drops below altitude 10° 04:46:58 10° 51° (NE) 1,507 -0.2 -19.2°
Sets 04:49:04 0° 53° (NE) 2,373 0.9 -18.8°
